User: anonymous   Login
Location: Skalnate Pleso
(49.1889°N, 20.2450°E)
Time: 02:57:01
(UTC+02:00)
Language:

Iridium 45 - Orbit

View from above orbital plane
View from above orbital plane
View from above satellite
View from above satellite

Ground track
Ground track

The orbit data is extracted from the following two-line orbital elements,

1 25104U 97082A   15186.51611114  .00000023  00000-0  10150-5 0  9996
2 25104 086.3957 225.1182 0004023 100.4432 259.7218 14.34216756918221
Epoch (UTC): 05 July 2015 12:23:12
Eccentricity: 0.0004023
inclination: 86.3957°
perigee height: 775 km
apogee height: 780 km
right ascension of ascending node: 225.1182°
argument of perigee: 100.4432°
revolutions per day: 14.34216756
mean anomaly at epoch: 259.7218°
orbit number at epoch: 91822

The dashed part of the orbit path shows where the satellite is in the earth's shadow,  

DLR